Time,TemperatureF,DewpointF,PressureIn,WindDirection,WindDirectionDegrees,WindSpeedMPH,WindSpeedGustMPH,Humidity,HourlyPrecipIn,Conditions,Clouds,dailyrainin,SoftwareType,DateUTC
2013-03-26 00:11:00,34.9,26.0,29.58,NW,312,0.0,3.0,70,0.00,,,0.00,weatherlink.com 1.10,2013-03-26 04:11:00,
2013-03-26 00:27:00,34.6,26.0,29.59,North,360,0.0,2.0,71,0.00,,,0.00,weatherlink.com 1.10,2013-03-26 04:27:00,
2013-03-26 00:42:00,34.5,26.0,29.59,NW,309,0.0,2.0,71,0.00,,,0.00,weatherlink.com 1.10,2013-03-26 04:42:00,
2013-03-26 00:57:00,34.2,26.0,29.59,NW,309,0.0,0.0,71,0.00,,,0.00,weatherlink.com 1.10,2013-03-26 04:57:00,
2013-03-26 01:12:00,34.1,26.0,29.60,NW,314,0.0,0.0,71,0.00,,,0.00,weatherlink.com 1.10,2013-03-26 05:12:00,
2013-03-26 01:28:00,34.2,26.0,29.60,NW,326,0.0,2.0,72,0.00,,,0.00,weatherlink.com 1.10,2013-03-26 05:28:00,
2013-03-26 01:42:00,33.3,26.0,29.60,NW,326,0.0,1.0,74,0.00,,,0.00,weatherlink.com 1.10,2013-03-26 05:42:00,
2013-03-26 01:57:00,32.9,26.0,29.60,NW,326,0.0,2.0,75,0.00,,,0.00,weatherlink.com 1.10,2013-03-26 05:57:00,
2013-03-26 02:12:00,32.4,26.0,29.60,NNW,336,0.0,1.0,77,0.00,,,0.00,weatherlink.com 1.10,2013-03-26 06:12:00,
2013-03-26 02:27:00,32.2,27.0,29.60,NNW,341,0.0,1.0,80,0.00,,,0.00,weatherlink.com 1.10,2013-03-26 06:27:00,
2013-03-26 02:42:00,32.2,26.0,29.60,NNW,341,0.0,1.0,79,0.00,,,0.00,weatherlink.com 1.10,2013-03-26 06:42:00,
2013-03-26 02:57:00,31.7,27.0,29.60,NNW,348,0.0,1.0,82,0.00,,,0.00,weatherlink.com 1.10,2013-03-26 06:57:00,
2013-03-26 03:12:00,32.2,26.0,29.60,NNW,348,0.0,0.0,79,0.00,,,0.00,weatherlink.com 1.10,2013-03-26 07:12:00,
2013-03-26 03:27:00,32.6,27.0,29.60,East,84,0.0,2.0,79,0.00,,,0.00,weatherlink.com 1.10,2013-03-26 07:27:00,
2013-03-26 03:42:00,32.1,27.0,29.61,East,82,0.0,1.0,81,0.00,,,0.00,weatherlink.com 1.10,2013-03-26 07:42:00,
2013-03-26 03:57:00,31.9,26.0,29.60,ENE,62,0.0,2.0,80,0.00,,,0.00,weatherlink.com 1.10,2013-03-26 07:57:00,
2013-03-26 04:12:00,32.3,27.0,29.61,ENE,57,0.0,0.0,80,0.00,,,0.00,weatherlink.com 1.10,2013-03-26 08:12:00,
2013-03-26 04:27:00,32.6,27.0,29.61,ENE,61,2.0,2.0,79,0.00,,,0.00,weatherlink.com 1.10,2013-03-26 08:27:00,
2013-03-26 04:42:00,33.2,27.0,29.61,East,89,0.0,2.0,78,0.00,,,0.00,weatherlink.com 1.10,2013-03-26 08:42:00,
2013-03-26 04:57:00,33.3,27.0,29.62,WSW,250,0.0,2.0,79,0.00,,,0.00,weatherlink.com 1.10,2013-03-26 08:57:00,
2013-03-26 05:12:00,33.0,27.0,29.62,NNW,338,1.0,1.0,80,0.00,,,0.00,weatherlink.com 1.10,2013-03-26 09:12:00,
2013-03-26 05:27:00,33.2,27.0,29.63,NW,314,0.0,2.0,79,0.00,,,0.00,weatherlink.com 1.10,2013-03-26 09:27:00,
2013-03-26 05:42:00,33.4,27.0,29.63,East,94,0.0,2.0,78,0.00,,,0.00,weatherlink.com 1.10,2013-03-26 09:42:00,
2013-03-26 05:57:00,33.0,27.0,29.64,East,94,1.0,2.0,79,0.00,,,0.00,weatherlink.com 1.10,2013-03-26 09:57:00,
2013-03-26 06:12:00,32.6,27.0,29.64,East,94,0.0,0.0,80,0.00,,,0.00,weatherlink.com 1.10,2013-03-26 10:12:00,
2013-03-26 06:27:00,32.5,27.0,29.65,East,94,0.0,1.0,81,0.00,,,0.00,weatherlink.com 1.10,2013-03-26 10:27:00,
2013-03-26 06:42:00,32.8,27.0,29.65,East,93,0.0,0.0,80,0.00,,,0.00,weatherlink.com 1.10,2013-03-26 10:42:00,
2013-03-26 06:57:00,33.1,28.0,29.65,East,93,0.0,0.0,80,0.00,,,0.00,weatherlink.com 1.10,2013-03-26 10:57:00,
2013-03-26 07:12:00,33.0,27.0,29.65,SSE,149,0.0,0.0,80,0.00,,,0.00,weatherlink.com 1.10,2013-03-26 11:12:00,
2013-03-26 07:27:00,33.2,28.0,29.66,SSE,150,0.0,1.0,80,0.00,,,0.00,weatherlink.com 1.10,2013-03-26 11:27:00,
2013-03-26 07:42:00,33.2,28.0,29.67,SSW,211,0.0,2.0,81,0.00,,,0.00,weatherlink.com 1.10,2013-03-26 11:42:00,
2013-03-26 07:57:00,33.7,28.0,29.67,SW,231,0.0,2.0,79,0.00,,,0.00,weatherlink.com 1.10,2013-03-26 11:57:00,
2013-03-26 08:13:00,34.2,28.0,29.68,SW,231,0.0,0.0,78,0.00,,,0.00,weatherlink.com 1.10,2013-03-26 12:13:00,
2013-03-26 08:28:00,34.4,28.0,29.68,SW,231,0.0,0.0,78,0.00,,,0.00,weatherlink.com 1.10,2013-03-26 12:28:00,
2013-03-26 08:43:00,34.6,29.0,29.68,SW,231,0.0,0.0,80,0.00,,,0.00,weatherlink.com 1.10,2013-03-26 12:43:00,
2013-03-26 08:58:00,35.7,28.0,29.69,SSE,159,0.0,2.0,74,0.00,,,0.00,weatherlink.com 1.10,2013-03-26 12:58:00,
2013-03-26 09:13:00,35.8,29.0,29.69,ESE,115,1.0,3.0,75,0.00,,,0.00,weatherlink.com 1.10,2013-03-26 13:13:00,
2013-03-26 09:28:00,34.6,30.0,29.70,ESE,112,1.0,3.0,82,0.00,,,0.00,weatherlink.com 1.10,2013-03-26 13:28:00,
2013-03-26 09:43:00,36.2,30.0,29.70,SSE,160,0.0,2.0,78,0.00,,,0.00,weatherlink.com 1.10,2013-03-26 13:43:00,
2013-03-26 09:58:00,36.1,31.0,29.70,South,178,1.0,3.0,82,0.00,,,0.00,weatherlink.com 1.10,2013-03-26 13:58:00,
2013-03-26 10:13:00,37.2,31.0,29.70,ESE,113,1.0,4.0,77,0.00,,,0.00,weatherlink.com 1.10,2013-03-26 14:13:00,
2013-03-26 10:28:00,38.4,31.0,29.71,SE,145,0.0,4.0,74,0.00,,,0.00,weatherlink.com 1.10,2013-03-26 14:28:00,
2013-03-26 10:43:00,38.2,30.0,29.71,SE,136,2.0,8.0,71,0.00,,,0.00,weatherlink.com 1.10,2013-03-26 14:43:00,
2013-03-26 10:58:00,38.7,29.0,29.71,East,92,1.0,3.0,69,0.00,,,0.00,weatherlink.com 1.10,2013-03-26 14:58:00,
2013-03-26 11:13:00,39.1,29.0,29.71,SSE,147,2.0,5.0,67,0.00,,,0.00,weatherlink.com 1.10,2013-03-26 15:13:00,
2013-03-26 11:28:00,38.8,28.0,29.71,ESE,120,2.0,6.0,65,0.00,,,0.00,weatherlink.com 1.10,2013-03-26 15:28:00,
2013-03-26 11:43:00,37.4,29.0,29.72,East,101,1.0,6.0,73,0.00,,,0.00,weatherlink.com 1.10,2013-03-26 15:43:00,
2013-03-26 11:58:00,38.4,30.0,29.72,SW,217,2.0,3.0,72,0.00,,,0.00,weatherlink.com 1.10,2013-03-26 15:58:00,
2013-03-26 12:13:00,39.6,29.0,29.72,SSW,192,4.0,5.0,65,0.00,,,0.00,weatherlink.com 1.10,2013-03-26 16:13:00,
2013-03-26 12:28:00,39.4,27.0,29.72,SSW,200,2.0,12.0,62,0.00,,,0.00,weatherlink.com 1.10,2013-03-26 16:28:00,
2013-03-26 12:43:00,39.4,28.0,29.72,East,90,2.0,4.0,63,0.00,,,0.00,weatherlink.com 1.10,2013-03-26 16:43:00,
2013-03-26 12:58:00,40.7,28.0,29.72,South,169,3.0,8.0,61,0.00,,,0.00,weatherlink.com 1.10,2013-03-26 16:58:00,
2013-03-26 13:13:00,40.9,27.0,29.72,East,81,3.0,7.0,57,0.00,,,0.00,weatherlink.com 1.10,2013-03-26 17:13:00,
2013-03-26 13:28:00,40.7,26.0,29.72,East,88,1.0,4.0,56,0.00,,,0.00,weatherlink.com 1.10,2013-03-26 17:28:00,
2013-03-26 13:43:00,41.2,25.0,29.72,SSE,157,1.0,7.0,53,0.00,,,0.00,weatherlink.com 1.10,2013-03-26 17:43:00,
2013-03-26 13:58:00,41.2,25.0,29.72,South,178,3.0,6.0,53,0.00,,,0.00,weatherlink.com 1.10,2013-03-26 17:58:00,
2013-03-26 14:13:00,42.4,25.0,29.71,East,96,3.0,11.0,50,0.00,,,0.00,weatherlink.com 1.10,2013-03-26 18:13:00,
2013-03-26 14:28:00,41.4,24.0,29.71,East,98,2.0,5.0,51,0.00,,,0.00,weatherlink.com 1.10,2013-03-26 18:28:00,
2013-03-26 14:43:00,41.5,25.0,29.71,ESE,106,0.0,4.0,53,0.00,,,0.00,weatherlink.com 1.10,2013-03-26 18:43:00,
2013-03-26 14:58:00,41.6,24.0,29.72,East,89,5.0,6.0,50,0.00,,,0.00,weatherlink.com 1.10,2013-03-26 18:58:00,
2013-03-26 15:13:00,41.1,25.0,29.72,East,82,0.0,7.0,53,0.00,,,0.00,weatherlink.com 1.10,2013-03-26 19:13:00,
2013-03-26 15:28:00,40.9,24.0,29.72,ESE,107,3.0,7.0,52,0.00,,,0.00,weatherlink.com 1.10,2013-03-26 19:28:00,
2013-03-26 15:43:00,40.9,23.0,29.72,East,98,1.0,5.0,49,0.00,,,0.00,weatherlink.com 1.10,2013-03-26 19:43:00,
2013-03-26 15:58:00,41.5,23.0,29.72,ESE,113,1.0,3.0,49,0.00,,,0.00,weatherlink.com 1.10,2013-03-26 19:58:00,
2013-03-26 16:13:00,41.4,23.0,29.72,SSW,213,0.0,7.0,49,0.00,,,0.00,weatherlink.com 1.10,2013-03-26 20:13:00,
2013-03-26 16:28:00,42.3,23.0,29.73,ESE,107,2.0,5.0,46,0.00,,,0.00,weatherlink.com 1.10,2013-03-26 20:28:00,
2013-03-26 16:43:00,42.1,22.0,29.73,East,92,2.0,4.0,45,0.00,,,0.00,weatherlink.com 1.10,2013-03-26 20:43:00,
2013-03-26 16:58:00,41.2,23.0,29.73,East,92,2.0,5.0,48,0.00,,,0.00,weatherlink.com 1.10,2013-03-26 20:58:00,
2013-03-26 17:14:00,42.5,22.0,29.73,East,88,2.0,4.0,45,0.00,,,0.00,weatherlink.com 1.10,2013-03-26 21:14:00,
2013-03-26 17:29:00,42.5,21.0,29.73,SE,140,1.0,3.0,43,0.00,,,0.00,weatherlink.com 1.10,2013-03-26 21:29:00,
2013-03-26 17:44:00,42.7,18.0,29.74,ESE,119,1.0,7.0,37,0.00,,,0.00,weatherlink.com 1.10,2013-03-26 21:44:00,
2013-03-26 17:59:00,42.3,19.0,29.74,East,80,2.0,5.0,40,0.00,,,0.00,weatherlink.com 1.10,2013-03-26 21:59:00,
2013-03-26 18:14:00,41.9,21.0,29.75,NE,51,1.0,5.0,43,0.00,,,0.00,weatherlink.com 1.10,2013-03-26 22:14:00,
2013-03-26 18:29:00,41.4,22.0,29.75,East,97,2.0,6.0,47,0.00,,,0.00,weatherlink.com 1.10,2013-03-26 22:29:00,
2013-03-26 18:44:00,39.8,24.0,29.76,SSE,151,3.0,7.0,53,0.00,,,0.00,weatherlink.com 1.10,2013-03-26 22:44:00,
2013-03-26 18:59:00,38.7,23.0,29.77,East,91,3.0,6.0,54,0.00,,,0.00,weatherlink.com 1.10,2013-03-26 22:59:00,
2013-03-26 19:14:00,37.6,23.0,29.77,SSW,210,0.0,3.0,57,0.00,,,0.00,weatherlink.com 1.10,2013-03-26 23:14:00,
2013-03-26 19:29:00,37.2,23.0,29.78,ESE,111,3.0,7.0,58,0.00,,,0.00,weatherlink.com 1.10,2013-03-26 23:29:00,
2013-03-26 19:44:00,37.3,26.0,29.78,SSE,161,0.0,2.0,63,0.00,,,0.00,weatherlink.com 1.10,2013-03-26 23:44:00,
2013-03-26 19:59:00,35.6,25.0,29.79,SW,236,0.0,2.0,66,0.00,,,0.00,weatherlink.com 1.10,2013-03-26 23:59:00,
2013-03-26 20:14:00,34.6,25.0,29.79,SW,236,0.0,0.0,68,0.00,,,0.00,weatherlink.com 1.10,2013-03-27 00:14:00,
2013-03-26 20:29:00,34.3,25.0,29.80,NNW,345,0.0,2.0,68,0.00,,,0.00,weatherlink.com 1.10,2013-03-27 00:29:00,
2013-03-26 20:44:00,34.2,25.0,29.80,NNW,330,0.0,2.0,68,0.00,,,0.00,weatherlink.com 1.10,2013-03-27 00:44:00,
2013-03-26 20:59:00,33.8,24.0,29.80,NNE,32,0.0,2.0,68,0.00,,,0.00,weatherlink.com 1.10,2013-03-27 00:59:00,
2013-03-26 21:14:00,33.7,25.0,29.81,NNE,24,1.0,3.0,69,0.00,,,0.00,weatherlink.com 1.10,2013-03-27 01:14:00,
2013-03-26 21:29:00,33.6,24.0,29.81,NNE,17,1.0,2.0,68,0.00,,,0.00,weatherlink.com 1.10,2013-03-27 01:29:00,
2013-03-26 21:44:00,32.9,23.0,29.82,NNE,22,1.0,2.0,67,0.00,,,0.00,weatherlink.com 1.10,2013-03-27 01:44:00,
2013-03-26 21:59:00,32.6,23.0,29.83,NNE,13,1.0,3.0,67,0.00,,,0.00,weatherlink.com 1.10,2013-03-27 01:59:00,
2013-03-26 22:14:00,32.3,24.0,29.82,NNE,32,1.0,3.0,71,0.00,,,0.00,weatherlink.com 1.10,2013-03-27 02:14:00,
2013-03-26 22:29:00,33.2,22.0,29.83,NE,42,0.0,5.0,64,0.00,,,0.00,weatherlink.com 1.10,2013-03-27 02:29:00,
2013-03-26 22:44:00,33.3,21.0,29.83,North,9,2.0,3.0,62,0.00,,,0.00,weatherlink.com 1.10,2013-03-27 02:44:00,
2013-03-26 22:59:00,33.6,21.0,29.83,NNE,17,2.0,2.0,61,0.00,,,0.00,weatherlink.com 1.10,2013-03-27 02:59:00,
2013-03-26 23:14:00,33.1,21.0,29.83,North,360,2.0,2.0,62,0.00,,,0.00,weatherlink.com 1.10,2013-03-27 03:14:00,
2013-03-26 23:29:00,33.5,21.0,29.83,NE,45,0.0,4.0,61,0.00,,,0.00,weatherlink.com 1.10,2013-03-27 03:29:00,
2013-03-26 23:44:00,33.2,21.0,29.84,NNE,29,1.0,3.0,60,0.00,,,0.00,weatherlink.com 1.10,2013-03-27 03:44:00,
2013-03-26 23:59:00,32.6,21.0,29.84,NNE,28,1.0,2.0,63,0.00,,,0.00,weatherlink.com 1.10,2013-03-27 03:59:00,